Theta_e
329 330 328 322 316 321 309 311 306 308 310 316 322 321 326 330 333 336 340 341 343 345 345 348 346 347 348 350 351 349 352 353
324 327 326 323 323 311 312 301 298 304 306 307 313 315 320 322 327 334 340 340 342 344 344 347 348 350 347 348 349 352 351 346
319 318 314 317 315 314 310 306 301 299 304 314 314 317 318 322 328 333 338 339 341 344 345 346 346 348 351 350 351 352 346 339
311 313 313 313 311 311 305 304 307 305 304 317 317 319 320 320 330 337 340 338 339 341 343 345 340 343 346 349 349 347 348 342
307 310 312 310 312 313 311 310 305 303 305 318 318 319 321 322 330 337 337 334 337 337 342 344 337 338 341 342 343 345 346 343
303 307 311 308 310 312 311 306 307 307 309 313 316 317 321 327 330 336 335 335 338 336 335 335 334 333 334 335 338 339 339 338
311 311 311 310 309 310 309 311 307 309 309 313 317 321 327 331 333 335 331 336 337 334 333 334 332 330 331 331 331 331 330 330
310 312 311 309 311 311 311 310 310 311 311 318 324 326 328 332 332 333 333 334 336 334 334 334 335 334 331 330 330 332 331 329
306 310 310 305 308 310 311 312 312 308 314 319 321 326 332 333 332 332 333 331 331 332 332 337 337 337 335 331 332 331 331 330
307 309 299 310 316 314 313 313 315 316 318 321 327 331 333 336 334 333 334 335 334 334 338 336 337 336 339 338 335 332 333 331
305 305 309 311 314 313 312 310 316 318 321 322 326 331 328 333 335 334 337 340 339 337 341 338 335 337 335 335 334 333 331 331
309 304 300 310 315 320 318 307 321 321 321 321 324 317 323 328 330 331 337 341 340 340 340 341 339 338 336 334 334 332 332 334
308 306 309 315 317 321 306 312 322 322 324 324 322 327 331 331 331 333 337 341 342 340 338 340 340 339 334 334 334 335 336 336
309 306 302 319 318 312 320 324 323 324 326 325 328 330 332 331 331 333 338 340 341 339 337 339 340 339 335 335 336 336 335 334
311 312 322 323 322 324 325 324 325 325 326 328 327 327 328 328 329 333 338 341 341 340 338 339 340 340 336 337 337 336 334 333
314 317 319 321 323 324 326 326 327 328 328 328 327 329 329 330 331 331 338 341 342 340 339 337 340 338 337 338 337 335 333 333
316 319 320 321 321 323 325 327 328 329 328 328 331 331 331 331 333 331 337 341 342 341 341 341 340 337 335 336 337 333 333 332
309 318 316 317 322 326 326 325 327 327 327 328 329 328 329 329 334 336 335 340 342 343 341 341 341 337 336 337 337 335 332 331
316 320 320 323 324 326 325 327 328 328 328 328 330 331 330 328 333 333 338 336 340 342 343 342 341 341 338 339 338 336 333 330
Wind_Speed
6 3 8 7 8 9 12 12 9 5 5 9 7 8 10 10 5 4 2 2 3 3 5 3 10 12 12 12 11 11 11 16
7 5 8 11 7 8 7 8 11 11 13 8 11 17 14 14 11 3 3 4 5 6 5 4 5 7 11 11 14 15 17 16
5 10 9 8 11 7 9 7 11 13 9 15 12 12 16 14 12 5 6 5 1 1 2 2 2 6 9 13 13 13 16 15
11 4 3 9 11 9 10 11 9 9 13 7 6 14 17 17 9 4 1 4 2 2 4 3 1 4 7 8 12 14 16 14
12 12 9 9 8 11 10 12 14 12 10 11 14 16 16 14 6 3 4 7 6 4 3 1 3 3 7 9 10 10 9 10
13 15 9 12 12 11 14 11 14 15 19 18 16 15 15 14 10 8 8 8 7 4 3 0 3 3 4 6 7 9 9 8
14 12 13 16 16 15 17 16 18 21 22 19 16 12 11 10 6 9 9 11 7 7 6 5 5 5 5 6 7 7 8 9
17 17 17 19 18 20 21 21 22 20 19 11 9 8 11 6 4 6 11 9 8 8 8 9 9 9 9 7 8 8 8 8
17 16 14 16 17 17 14 15 16 14 15 17 12 13 9 7 3 4 3 6 8 9 10 9 9 9 11 9 10 9 10 10
13 13 15 4 3 5 12 14 15 15 13 13 10 10 8 3 3 3 5 9 12 10 12 11 10 10 6 11 11 10 8 10
8 10 14 13 9 3 9 13 14 9 9 11 8 9 10 3 1 5 5 7 11 11 10 10 10 11 12 12 11 11 11 9
9 11 11 4 4 3 5 12 10 7 11 13 12 9 8 3 4 6 6 7 9 12 12 14 12 12 12 11 10 11 11 10
13 13 10 3 4 1 10 5 11 11 11 12 10 5 6 7 8 6 5 8 10 13 12 12 12 12 11 11 11 10 10 10
10 13 15 8 7 7 10 11 10 10 10 10 9 4 6 8 6 4 6 9 10 11 9 12 12 12 11 12 11 11 10 10
5 3 7 2 7 11 8 9 9 9 10 9 8 5 1 5 4 4 7 8 9 10 12 12 13 13 13 12 12 11 11 11
13 9 14 10 10 11 11 10 9 8 9 8 9 8 7 5 5 5 6 7 10 10 14 13 14 13 13 13 13 13 12 12
14 15 15 16 15 11 9 8 8 7 8 9 9 9 8 2 5 6 6 9 10 11 12 13 14 14 14 14 14 13 12 12
12 11 11 13 11 12 9 10 8 8 9 4 5 5 10 7 7 6 8 9 10 11 11 13 15 15 14 14 14 13 13 11
12 12 12 12 14 16 14 13 9 9 9 9 6 8 6 6 3 7 9 10 10 12 12 11 13 15 15 15 15 15 13 11
Wind_Direction
206 189 259 112 245 6 291 274 260 318 336 295 152 77 32 350 325 303 285 227 186 197 185 235 183 212 205 209 194 175 167 138
109 231 219 264 357 249 212 283 296 307 306 297 350 334 348 344 336 271 205 221 189 198 195 190 183 204 203 154 195 180 149 136
175 207 303 177 232 224 301 280 304 298 311 346 333 333 331 327 336 289 221 229 197 314 32 347 235 244 203 186 194 160 157 155
307 66 277 279 288 277 285 293 287 294 283 67 317 324 310 315 348 312 226 176 120 20 12 60 52 157 177 157 162 162 178 169
246 181 194 238 231 263 288 285 268 284 290 317 318 316 316 345 335 151 187 159 175 197 221 93 113 172 168 161 166 169 180 163
285 316 325 287 258 242 275 281 294 287 305 319 324 317 345 343 316 164 185 194 174 169 170 110 75 86 73 94 121 142 142 156
277 284 276 277 280 281 272 267 276 298 302 310 314 355 332 330 324 156 193 215 179 164 156 154 141 123 106 95 104 111 115 120
277 276 270 270 271 276 276 279 280 282 288 303 4 322 337 335 280 204 210 192 189 170 166 168 157 143 133 130 130 132 129 141
271 289 300 279 266 264 271 274 285 286 311 333 328 336 341 349 324 278 219 167 186 188 178 180 163 156 147 147 144 149 153 149
272 280 258 326 52 314 298 294 287 292 305 342 345 323 319 314 286 204 216 181 182 185 185 178 170 167 134 158 155 147 155 157
253 242 268 283 290 300 328 307 307 340 338 337 354 318 272 93 24 303 250 206 178 176 194 169 172 164 160 173 151 153 158 167
239 269 277 335 104 26 311 275 59 353 344 342 344 320 74 48 342 315 236 190 170 171 176 180 174 165 172 159 160 157 150 167
242 253 264 329 114 173 255 18 346 350 339 333 327 333 321 300 311 324 211 179 174 170 180 174 166 171 170 175 170 157 151 157
238 274 268 109 148 247 352 327 330 326 329 323 325 291 262 289 308 294 190 175 190 175 175 165 172 176 189 179 163 156 160 166
262 299 113 210 284 309 304 288 300 310 326 318 307 284 326 299 285 254 210 182 192 190 156 176 180 186 179 171 167 165 170 175
265 244 260 286 293 290 276 273 296 320 311 304 283 259 259 286 251 211 203 203 198 192 174 183 181 185 181 170 172 176 179 182
263 266 277 269 274 284 283 270 269 280 293 302 288 248 245 267 249 214 202 196 195 200 192 184 181 186 180 175 179 185 188 191
271 283 292 284 286 287 296 288 271 287 298 272 269 236 224 186 213 196 200 199 199 208 197 191 187 187 189 181 187 196 195 202
277 278 278 285 285 282 271 274 272 276 281 260 247 243 279 315 307 196 201 203 210 211 206 199 191 190 191 191 195 202 216 209